owner,sensor,date,latitude,longitude,vertical_datum,mass_concentration_of_oxygen_in_sea_water,qcFlag 
DISL,ioos:station:DISL:BSCA:1,2013-03-01T00:00:00Z,30.3288,-87.8293,1.721,10.19,1111122 
DISL,ioos:station:DISL:BSCA:1,2013-03-01T00:30:00Z,30.3288,-87.8293,1.732,10.23,1111122 
DISL,ioos:station:DISL:BSCA:1,2013-03-01T01:00:00Z,30.3288,-87.8293,1.72,10.24,1111122 
DISL,ioos:station:DISL:BSCA:1,2013-03-01T01:30:00Z,30.3288,-87.8293,1.692,10.18,1111122 
DISL,ioos:station:DISL:BSCA:1,2013-03-01T02:00:00Z,30.3288,-87.8293,1.696,10.1,1111122 
DISL,ioos:station:DISL:BSCA:1,2013-03-01T02:30:00Z,30.3288,-87.8293,1.677,10.15,1111122 
DISL,ioos:station:DISL:BSCA:1,2013-03-01T03:00:00Z,30.3288,-87.8293,1.658,10.13,1111122 
DISL,ioos:station:DISL:BSCA:1,2013-03-01T03:30:00Z,30.3288,-87.8293,1.646,10.06,1111122 
DISL,ioos:station:DISL:BSCA:1,2013-03-01T04:00:00Z,30.3288,-87.8293,1.659,10.04,1111122 
DISL,ioos:station:DISL:BSCA:1,2013-03-01T04:30:00Z,30.3288,-87.8293,1.643,9.99,1111122 
DISL,ioos:station:DISL:BSCA:1,2013-03-01T05:00:00Z,30.3288,-87.8293,1.641,9.88,1111122 
DISL,ioos:station:DISL:BSCA:1,2013-03-01T05:30:00Z,30.3288,-87.8293,1.648,9.87,1111122 
DISL,ioos:station:DISL:BSCA:1,2013-03-01T06:00:00Z,30.3288,-87.8293,1.643,9.81,1111122 
DISL,ioos:station:DISL:BSCA:1,2013-03-01T06:30:00Z,30.3288,-87.8293,1.654,9.85,1111122 
DISL,ioos:station:DISL:BSCA:1,2013-03-01T07:00:00Z,30.3288,-87.8293,1.628,9.81,1111122 
DISL,ioos:station:DISL:BSCA:1,2013-03-01T07:30:00Z,30.3288,-87.8293,1.622,9.69,1111122 
DISL,ioos:station:DISL:BSCA:1,2013-03-01T08:00:00Z,30.3288,-87.8293,1.613,9.72,1111122 
DISL,ioos:station:DISL:BSCA:1,2013-03-01T08:30:00Z,30.3288,-87.8293,1.603,9.7,1111122 
DISL,ioos:station:DISL:BSCA:1,2013-03-01T09:00:00Z,30.3288,-87.8293,1.597,9.4,1111122 
DISL,ioos:station:DISL:BSCA:1,2013-03-01T09:30:00Z,30.3288,-87.8293,1.604,9.41,1111122 
DISL,ioos:station:DISL:BSCA:1,2013-03-01T10:00:00Z,30.3288,-87.8293,1.609,9.47,1111122 
DISL,ioos:station:DISL:BSCA:1,2013-03-01T10:30:00Z,30.3288,-87.8293,1.609,9.28,1111122 
DISL,ioos:station:DISL:BSCA:1,2013-03-01T11:00:00Z,30.3288,-87.8293,1.615,9.25,1111122 
DISL,ioos:station:DISL:BSCA:1,2013-03-01T11:30:00Z,30.3288,-87.8293,1.621,9.16,1111122 
DISL,ioos:station:DISL:BSCA:1,2013-03-01T12:00:00Z,30.3288,-87.8293,1.629,9.21,1111122 
DISL,ioos:station:DISL:BSCA:1,2013-03-01T12:30:00Z,30.3288,-87.8293,1.627,9.1,1111122 
DISL,ioos:station:DISL:BSCA:1,2013-03-01T13:00:00Z,30.3288,-87.8293,1.64,9.23,1111122 
DISL,ioos:station:DISL:BSCA:1,2013-03-01T13:30:00Z,30.3288,-87.8293,1.651,9.26,1111122 
DISL,ioos:station:DISL:BSCA:1,2013-03-01T14:00:00Z,30.3288,-87.8293,1.659,9.07,1111122 
DISL,ioos:station:DISL:BSCA:1,2013-03-01T14:30:00Z,30.3288,-87.8293,1.674,8.9,1111122 
DISL,ioos:station:DISL:BSCA:1,2013-03-01T15:00:00Z,30.3288,-87.8293,1.688,9.15,1111122 
DISL,ioos:station:DISL:BSCA:1,2013-03-01T15:30:00Z,30.3288,-87.8293,1.713,9.23,1111122 
DISL,ioos:station:DISL:BSCA:1,2013-03-01T16:00:00Z,30.3288,-87.8293,1.731,9.37,1111122 
DISL,ioos:station:DISL:BSCA:1,2013-03-01T16:30:00Z,30.3288,-87.8293,1.756,9.3,1111122 
DISL,ioos:station:DISL:BSCA:1,2013-03-01T17:00:00Z,30.3288,-87.8293,1.773,9.43,1111122 
DISL,ioos:station:DISL:BSCA:1,2013-03-01T17:30:00Z,30.3288,-87.8293,1.795,9.55,1111122 
DISL,ioos:station:DISL:BSCA:1,2013-03-01T18:00:00Z,30.3288,-87.8293,1.817,9.33,1111122 
DISL,ioos:station:DISL:BSCA:1,2013-03-01T18:30:00Z,30.3288,-87.8293,1.835,9.01,1111122 
DISL,ioos:station:DISL:BSCA:1,2013-03-01T19:00:00Z,30.3288,-87.8293,1.84,9.49,1111122 
DISL,ioos:station:DISL:BSCA:1,2013-03-01T19:30:00Z,30.3288,-87.8293,1.858,8.93,1111122 
DISL,ioos:station:DISL:BSCA:1,2013-03-01T20:00:00Z,30.3288,-87.8293,1.864,9.35,1111122 
DISL,ioos:station:DISL:BSCA:1,2013-03-01T20:30:00Z,30.3288,-87.8293,1.859,9.69,1111122 
DISL,ioos:station:DISL:BSCA:1,2013-03-01T21:00:00Z,30.3288,-87.8293,1.854,9.59,1111122 
DISL,ioos:station:DISL:BSCA:1,2013-03-01T21:30:00Z,30.3288,-87.8293,1.85,9.45,1111122 
DISL,ioos:station:DISL:BSCA:1,2013-03-01T22:00:00Z,30.3288,-87.8293,1.826,9.27,1111122 
DISL,ioos:station:DISL:BSCA:1,2013-03-01T22:30:00Z,30.3288,-87.8293,1.844,9.12,1111122 
DISL,ioos:station:DISL:BSCA:1,2013-03-01T23:00:00Z,30.3288,-87.8293,1.825,9.57,1111122 
DISL,ioos:station:DISL:BSCA:1,2013-03-01T23:30:00Z,30.3288,-87.8293,1.831,9.59,1111122 
DISL,ioos:station:DISL:BSCA:1,2013-03-02T00:00:00Z,30.3288,-87.8293,1.818,9.87,1111122 
DISL,ioos:station:DISL:BSCA:1,2013-03-02T00:30:00Z,30.3288,-87.8293,1.791,9.82,1111122 
DISL,ioos:station:DISL:BSCA:1,2013-03-02T01:00:00Z,30.3288,-87.8293,1.756,9.74,1111122 
DISL,ioos:station:DISL:BSCA:1,2013-03-02T01:30:00Z,30.3288,-87.8293,1.727,9.85,1111122 
DISL,ioos:station:DISL:BSCA:1,2013-03-02T02:00:00Z,30.3288,-87.8293,1.704,9.61,1111122 
DISL,ioos:station:DISL:BSCA:1,2013-03-02T02:30:00Z,30.3288,-87.8293,1.68,9.66,1111122 
DISL,ioos:station:DISL:BSCA:1,2013-03-02T03:00:00Z,30.3288,-87.8293,1.612,9.66,1111122 
DISL,ioos:station:DISL:BSCA:1,2013-03-02T03:30:00Z,30.3288,-87.8293,1.724,9.93,1111122 
DISL,ioos:station:DISL:BSCA:1,2013-03-02T04:00:00Z,30.3288,-87.8293,1.639,10.14,1111122 
DISL,ioos:station:DISL:BSCA:1,2013-03-02T04:30:00Z,30.3288,-87.8293,1.63,10.3,1111122 
DISL,ioos:station:DISL:BSCA:1,2013-03-02T05:00:00Z,30.3288,-87.8293,1.653,10.31,1111122 
DISL,ioos:station:DISL:BSCA:1,2013-03-02T05:30:00Z,30.3288,-87.8293,1.576,10.41,1111122 
DISL,ioos:station:DISL:BSCA:1,2013-03-02T06:00:00Z,30.3288,-87.8293,1.505,10.38,1111122 
DISL,ioos:station:DISL:BSCA:1,2013-03-02T06:30:00Z,30.3288,-87.8293,1.463,10.25,1111122 
DISL,ioos:station:DISL:BSCA:1,2013-03-02T07:00:00Z,30.3288,-87.8293,1.441,10.2,1111122 
DISL,ioos:station:DISL:BSCA:1,2013-03-02T07:30:00Z,30.3288,-87.8293,1.438,10.19,1111122 
DISL,ioos:station:DISL:BSCA:1,2013-03-02T08:00:00Z,30.3288,-87.8293,1.48,10.14,1111122 
DISL,ioos:station:DISL:BSCA:1,2013-03-02T08:30:00Z,30.3288,-87.8293,1.51,10.12,1111122 
DISL,ioos:station:DISL:BSCA:1,2013-03-02T09:00:00Z,30.3288,-87.8293,1.567,10.24,1111122 
DISL,ioos:station:DISL:BSCA:1,2013-03-02T09:30:00Z,30.3288,-87.8293,1.575,10.3,1111122 
DISL,ioos:station:DISL:BSCA:1,2013-03-02T10:00:00Z,30.3288,-87.8293,1.582,10.35,1111122 
DISL,ioos:station:DISL:BSCA:1,2013-03-02T10:30:00Z,30.3288,-87.8293,1.595,10.33,1111122 
DISL,ioos:station:DISL:BSCA:1,2013-03-02T11:00:00Z,30.3288,-87.8293,1.581,10.34,1111122 
DISL,ioos:station:DISL:BSCA:1,2013-03-02T11:30:00Z,30.3288,-87.8293,1.594,10.09,1111122 
DISL,ioos:station:DISL:BSCA:1,2013-03-02T12:00:00Z,30.3288,-87.8293,1.606,10.01,1111122 
DISL,ioos:station:DISL:BSCA:1,2013-03-02T12:30:00Z,30.3288,-87.8293,1.614,10.0,1111122 
DISL,ioos:station:DISL:BSCA:1,2013-03-02T13:00:00Z,30.3288,-87.8293,1.647,10.05,1111122 
DISL,ioos:station:DISL:BSCA:1,2013-03-02T13:30:00Z,30.3288,-87.8293,1.658,10.07,1111122 
DISL,ioos:station:DISL:BSCA:1,2013-03-02T14:00:00Z,30.3288,-87.8293,1.682,10.14,1111122 
DISL,ioos:station:DISL:BSCA:1,2013-03-02T14:30:00Z,30.3288,-87.8293,1.706,10.17,1111122 
DISL,ioos:station:DISL:BSCA:1,2013-03-02T15:00:00Z,30.3288,-87.8293,1.712,10.2,1111122 
DISL,ioos:station:DISL:BSCA:1,2013-03-02T15:30:00Z,30.3288,-87.8293,1.73,10.21,1111122 
DISL,ioos:station:DISL:BSCA:1,2013-03-02T16:00:00Z,30.3288,-87.8293,1.746,10.26,1111122 
DISL,ioos:station:DISL:BSCA:1,2013-03-02T16:30:00Z,30.3288,-87.8293,1.759,10.35,1111122 
DISL,ioos:station:DISL:BSCA:1,2013-03-02T17:00:00Z,30.3288,-87.8293,1.753,10.33,1111122 
DISL,ioos:station:DISL:BSCA:1,2013-03-02T17:30:00Z,30.3288,-87.8293,1.818,10.34,1111122 
DISL,ioos:station:DISL:BSCA:1,2013-03-02T18:00:00Z,30.3288,-87.8293,1.825,10.36,1111122 
DISL,ioos:station:DISL:BSCA:1,2013-03-02T18:30:00Z,30.3288,-87.8293,1.888,10.43,1111122 
DISL,ioos:station:DISL:BSCA:1,2013-03-02T19:00:00Z,30.3288,-87.8293,1.881,10.5,1111122 
DISL,ioos:station:DISL:BSCA:1,2013-03-02T19:30:00Z,30.3288,-87.8293,1.97,10.51,1111122 
DISL,ioos:station:DISL:BSCA:1,2013-03-02T20:00:00Z,30.3288,-87.8293,1.951,10.52,1111122 
DISL,ioos:station:DISL:BSCA:1,2013-03-02T20:30:00Z,30.3288,-87.8293,1.937,10.52,1111122 
DISL,ioos:station:DISL:BSCA:1,2013-03-02T21:00:00Z,30.3288,-87.8293,1.852,10.52,1111122 
DISL,ioos:station:DISL:BSCA:1,2013-03-02T21:30:00Z,30.3288,-87.8293,1.812,10.54,1111122 
DISL,ioos:station:DISL:BSCA:1,2013-03-02T22:00:00Z,30.3288,-87.8293,1.884,10.54,1111122 
DISL,ioos:station:DISL:BSCA:1,2013-03-02T22:30:00Z,30.3288,-87.8293,1.905,10.52,1111122 
DISL,ioos:station:DISL:BSCA:1,2013-03-02T23:00:00Z,30.3288,-87.8293,1.812,10.61,1111122 
DISL,ioos:station:DISL:BSCA:1,2013-03-02T23:30:00Z,30.3288,-87.8293,1.777,10.62,1111122 
DISL,ioos:station:DISL:BSCA:1,2013-03-03T00:00:00Z,30.3288,-87.8293,1.711,10.59,1111122 
DISL,ioos:station:DISL:BSCA:1,2013-03-03T00:30:00Z,30.3288,-87.8293,1.718,10.57,1111122 
DISL,ioos:station:DISL:BSCA:1,2013-03-03T01:00:00Z,30.3288,-87.8293,1.671,10.53,1111122 
DISL,ioos:station:DISL:BSCA:1,2013-03-03T01:30:00Z,30.3288,-87.8293,1.625,10.59,1111122 
DISL,ioos:station:DISL:BSCA:1,2013-03-03T02:00:00Z,30.3288,-87.8293,1.686,10.56,1111122 
DISL,ioos:station:DISL:BSCA:1,2013-03-03T02:30:00Z,30.3288,-87.8293,1.577,10.5,1111122 
DISL,ioos:station:DISL:BSCA:1,2013-03-03T03:00:00Z,30.3288,-87.8293,1.573,10.48,1111122 
DISL,ioos:station:DISL:BSCA:1,2013-03-03T03:30:00Z,30.3288,-87.8293,1.517,10.42,1111122 
DISL,ioos:station:DISL:BSCA:1,2013-03-03T04:00:00Z,30.3288,-87.8293,1.533,10.4,1111122 
DISL,ioos:station:DISL:BSCA:1,2013-03-03T04:30:00Z,30.3288,-87.8293,1.507,10.36,1111122 
DISL,ioos:station:DISL:BSCA:1,2013-03-03T05:00:00Z,30.3288,-87.8293,1.561,10.35,1111122 
DISL,ioos:station:DISL:BSCA:1,2013-03-03T05:30:00Z,30.3288,-87.8293,1.503,10.31,1111122 
DISL,ioos:station:DISL:BSCA:1,2013-03-03T06:00:00Z,30.3288,-87.8293,1.469,10.28,1111122 
DISL,ioos:station:DISL:BSCA:1,2013-03-03T06:30:00Z,30.3288,-87.8293,1.41,10.26,1111122 
DISL,ioos:station:DISL:BSCA:1,2013-03-03T07:00:00Z,30.3288,-87.8293,1.428,10.24,1111122 
DISL,ioos:station:DISL:BSCA:1,2013-03-03T07:30:00Z,30.3288,-87.8293,1.414,10.24,1111122 
DISL,ioos:station:DISL:BSCA:1,2013-03-03T08:00:00Z,30.3288,-87.8293,1.418,10.21,1111122 
DISL,ioos:station:DISL:BSCA:1,2013-03-03T08:30:00Z,30.3288,-87.8293,1.41,10.25,1111122 
DISL,ioos:station:DISL:BSCA:1,2013-03-03T09:00:00Z,30.3288,-87.8293,1.422,10.22,1111122 
DISL,ioos:station:DISL:BSCA:1,2013-03-03T09:30:00Z,30.3288,-87.8293,1.418,10.18,1111122 
DISL,ioos:station:DISL:BSCA:1,2013-03-03T10:00:00Z,30.3288,-87.8293,1.415,10.17,1111122 
DISL,ioos:station:DISL:BSCA:1,2013-03-03T10:30:00Z,30.3288,-87.8293,1.408,10.15,1111122 
DISL,ioos:station:DISL:BSCA:1,2013-03-03T11:00:00Z,30.3288,-87.8293,1.399,10.17,1111122 
DISL,ioos:station:DISL:BSCA:1,2013-03-03T11:30:00Z,30.3288,-87.8293,1.416,10.16,1111122 
DISL,ioos:station:DISL:BSCA:1,2013-03-03T12:00:00Z,30.3288,-87.8293,1.441,10.25,1111122 
DISL,ioos:station:DISL:BSCA:1,2013-03-03T12:30:00Z,30.3288,-87.8293,1.473,10.23,1111122 
DISL,ioos:station:DISL:BSCA:1,2013-03-03T13:00:00Z,30.3288,-87.8293,1.499,10.32,1111122 
DISL,ioos:station:DISL:BSCA:1,2013-03-03T13:30:00Z,30.3288,-87.8293,1.537,10.32,1111122 
DISL,ioos:station:DISL:BSCA:1,2013-03-03T14:00:00Z,30.3288,-87.8293,1.563,10.36,1111122 
DISL,ioos:station:DISL:BSCA:1,2013-03-03T14:30:00Z,30.3288,-87.8293,1.568,10.4,1111122 
DISL,ioos:station:DISL:BSCA:1,2013-03-03T15:00:00Z,30.3288,-87.8293,1.552,10.37,1111122 
DISL,ioos:station:DISL:BSCA:1,2013-03-03T15:30:00Z,30.3288,-87.8293,1.593,10.3,1111122 
DISL,ioos:station:DISL:BSCA:1,2013-03-03T16:00:00Z,30.3288,-87.8293,1.618,10.32,1111122 
DISL,ioos:station:DISL:BSCA:1,2013-03-03T16:30:00Z,30.3288,-87.8293,1.626,10.32,1111122 
DISL,ioos:station:DISL:BSCA:1,2013-03-03T17:00:00Z,30.3288,-87.8293,1.663,10.38,1111122 
DISL,ioos:station:DISL:BSCA:1,2013-03-03T17:30:00Z,30.3288,-87.8293,1.694,10.43,1111122 
DISL,ioos:station:DISL:BSCA:1,2013-03-03T18:00:00Z,30.3288,-87.8293,1.718,10.47,1111122 
DISL,ioos:station:DISL:BSCA:1,2013-03-03T18:30:00Z,30.3288,-87.8293,1.746,10.52,1111122 
DISL,ioos:station:DISL:BSCA:1,2013-03-03T19:00:00Z,30.3288,-87.8293,1.771,10.62,1111122 
DISL,ioos:station:DISL:BSCA:1,2013-03-03T19:30:00Z,30.3288,-87.8293,1.793,10.38,1111122 
DISL,ioos:station:DISL:BSCA:1,2013-03-03T20:00:00Z,30.3288,-87.8293,1.812,10.51,1111122 
DISL,ioos:station:DISL:BSCA:1,2013-03-03T20:30:00Z,30.3288,-87.8293,1.834,10.61,1111122 
DISL,ioos:station:DISL:BSCA:1,2013-03-03T21:00:00Z,30.3288,-87.8293,1.844,10.64,1111122 
DISL,ioos:station:DISL:BSCA:1,2013-03-03T21:30:00Z,30.3288,-87.8293,1.851,10.77,1111122 
DISL,ioos:station:DISL:BSCA:1,2013-03-03T22:00:00Z,30.3288,-87.8293,1.853,10.78,1111122 
DISL,ioos:station:DISL:BSCA:1,2013-03-03T22:30:00Z,30.3288,-87.8293,1.833,10.78,1111122 
DISL,ioos:station:DISL:BSCA:1,2013-03-03T23:00:00Z,30.3288,-87.8293,1.82,10.55,1111122 
DISL,ioos:station:DISL:BSCA:1,2013-03-03T23:30:00Z,30.3288,-87.8293,1.797,10.46,1111122 
DISL,ioos:station:DISL:BSCA:1,2013-03-04T00:00:00Z,30.3288,-87.8293,1.804,10.71,1111122 
DISL,ioos:station:DISL:BSCA:1,2013-03-04T00:30:00Z,30.3288,-87.8293,1.782,10.81,1111122 
DISL,ioos:station:DISL:BSCA:1,2013-03-04T01:00:00Z,30.3288,-87.8293,1.779,10.74,1111122 
DISL,ioos:station:DISL:BSCA:1,2013-03-04T01:30:00Z,30.3288,-87.8293,1.751,10.7,1111122 
DISL,ioos:station:DISL:BSCA:1,2013-03-04T02:00:00Z,30.3288,-87.8293,1.638,10.73,1111122 
DISL,ioos:station:DISL:BSCA:1,2013-03-04T02:30:00Z,30.3288,-87.8293,1.707,10.76,1111122 
DISL,ioos:station:DISL:BSCA:1,2013-03-04T03:00:00Z,30.3288,-87.8293,1.67,10.77,1111122 
DISL,ioos:station:DISL:BSCA:1,2013-03-04T03:30:00Z,30.3288,-87.8293,1.628,10.76,1111122 
DISL,ioos:station:DISL:BSCA:1,2013-03-04T04:00:00Z,30.3288,-87.8293,1.589,10.68,1111122 
DISL,ioos:station:DISL:BSCA:1,2013-03-04T04:30:00Z,30.3288,-87.8293,1.549,10.64,1111122 
DISL,ioos:station:DISL:BSCA:1,2013-03-04T05:00:00Z,30.3288,-87.8293,1.514,10.59,1111122 
DISL,ioos:station:DISL:BSCA:1,2013-03-04T05:30:00Z,30.3288,-87.8293,1.494,10.41,1111122 
DISL,ioos:station:DISL:BSCA:1,2013-03-04T06:00:00Z,30.3288,-87.8293,1.479,10.53,1111122 
DISL,ioos:station:DISL:BSCA:1,2013-03-04T06:30:00Z,30.3288,-87.8293,1.463,10.49,1111122 
DISL,ioos:station:DISL:BSCA:1,2013-03-04T07:00:00Z,30.3288,-87.8293,1.45,10.67,1111122 
DISL,ioos:station:DISL:BSCA:1,2013-03-04T07:30:00Z,30.3288,-87.8293,1.444,10.33,1111122 
DISL,ioos:station:DISL:BSCA:1,2013-03-04T08:00:00Z,30.3288,-87.8293,1.433,10.79,1111122 
DISL,ioos:station:DISL:BSCA:1,2013-03-04T08:30:00Z,30.3288,-87.8293,1.431,10.83,1111122 
DISL,ioos:station:DISL:BSCA:1,2013-03-04T09:00:00Z,30.3288,-87.8293,1.429,10.91,1111122 
DISL,ioos:station:DISL:BSCA:1,2013-03-04T09:30:00Z,30.3288,-87.8293,1.442,10.96,1111122 
DISL,ioos:station:DISL:BSCA:1,2013-03-04T10:00:00Z,30.3288,-87.8293,1.448,10.96,1111122 
DISL,ioos:station:DISL:BSCA:1,2013-03-04T10:30:00Z,30.3288,-87.8293,1.439,10.91,1111122 
DISL,ioos:station:DISL:BSCA:1,2013-03-04T11:00:00Z,30.3288,-87.8293,1.442,10.65,1111122 
DISL,ioos:station:DISL:BSCA:1,2013-03-04T11:30:00Z,30.3288,-87.8293,1.472,10.66,1111122 
DISL,ioos:station:DISL:BSCA:1,2013-03-04T12:00:00Z,30.3288,-87.8293,1.483,10.31,1111122 
DISL,ioos:station:DISL:BSCA:1,2013-03-04T12:30:00Z,30.3288,-87.8293,1.518,10.0,1111122 
DISL,ioos:station:DISL:BSCA:1,2013-03-04T13:00:00Z,30.3288,-87.8293,1.548,9.59,1111122 
DISL,ioos:station:DISL:BSCA:1,2013-03-04T13:30:00Z,30.3288,-87.8293,1.577,9.35,1111122 
DISL,ioos:station:DISL:BSCA:1,2013-03-04T14:00:00Z,30.3288,-87.8293,1.612,10.5,1111122 
DISL,ioos:station:DISL:BSCA:1,2013-03-04T14:30:00Z,30.3288,-87.8293,1.642,10.33,1111122 
DISL,ioos:station:DISL:BSCA:1,2013-03-04T15:00:00Z,30.3288,-87.8293,1.673,10.13,1111122 
DISL,ioos:station:DISL:BSCA:1,2013-03-04T15:30:00Z,30.3288,-87.8293,1.707,9.68,1111122 
DISL,ioos:station:DISL:BSCA:1,2013-03-04T16:00:00Z,30.3288,-87.8293,1.742,9.53,1111122 
DISL,ioos:station:DISL:BSCA:1,2013-03-04T16:30:00Z,30.3288,-87.8293,1.771,9.98,1111122 
DISL,ioos:station:DISL:BSCA:1,2013-03-04T17:00:00Z,30.3288,-87.8293,1.808,10.09,1111122 
DISL,ioos:station:DISL:BSCA:1,2013-03-04T17:30:00Z,30.3288,-87.8293,1.829,10.05,1111122 
DISL,ioos:station:DISL:BSCA:1,2013-03-04T18:00:00Z,30.3288,-87.8293,1.886,10.1,1111122 
DISL,ioos:station:DISL:BSCA:1,2013-03-04T18:30:00Z,30.3288,-87.8293,1.903,10.15,1111122 
DISL,ioos:station:DISL:BSCA:1,2013-03-04T19:00:00Z,30.3288,-87.8293,1.967,10.25,1111122 
DISL,ioos:station:DISL:BSCA:1,2013-03-04T19:30:00Z,30.3288,-87.8293,1.999,10.41,1111122 
DISL,ioos:station:DISL:BSCA:1,2013-03-04T20:00:00Z,30.3288,-87.8293,2.018,10.31,1111122 
DISL,ioos:station:DISL:BSCA:1,2013-03-04T20:30:00Z,30.3288,-87.8293,2.027,10.19,1111122 
DISL,ioos:station:DISL:BSCA:1,2013-03-04T21:00:00Z,30.3288,-87.8293,2.024,10.8,1111122 
DISL,ioos:station:DISL:BSCA:1,2013-03-04T21:30:00Z,30.3288,-87.8293,2.024,11.05,1111122 
DISL,ioos:station:DISL:BSCA:1,2013-03-04T22:00:00Z,30.3288,-87.8293,2.011,11.02,1111122 
DISL,ioos:station:DISL:BSCA:1,2013-03-04T22:30:00Z,30.3288,-87.8293,2.001,10.92,1111122 
DISL,ioos:station:DISL:BSCA:1,2013-03-04T23:00:00Z,30.3288,-87.8293,1.984,10.93,1111122 
DISL,ioos:station:DISL:BSCA:1,2013-03-04T23:30:00Z,30.3288,-87.8293,1.984,11.02,1111122 
DISL,ioos:station:DISL:BSCA:1,2013-03-05T00:00:00Z,30.3288,-87.8293,1.958,11.07,1111122 
DISL,ioos:station:DISL:BSCA:1,2013-03-05T00:30:00Z,30.3288,-87.8293,1.943,11.05,1111122 
DISL,ioos:station:DISL:BSCA:1,2013-03-05T01:00:00Z,30.3288,-87.8293,1.925,11.07,1111122 
DISL,ioos:station:DISL:BSCA:1,2013-03-05T01:30:00Z,30.3288,-87.8293,1.902,11.05,1111122 
DISL,ioos:station:DISL:BSCA:1,2013-03-05T02:00:00Z,30.3288,-87.8293,1.867,11.03,1111122 
DISL,ioos:station:DISL:BSCA:1,2013-03-05T02:30:00Z,30.3288,-87.8293,1.833,11.04,1111122 
DISL,ioos:station:DISL:BSCA:1,2013-03-05T03:00:00Z,30.3288,-87.8293,1.792,10.92,1111122 
DISL,ioos:station:DISL:BSCA:1,2013-03-05T03:30:00Z,30.3288,-87.8293,1.759,10.81,1111122 
DISL,ioos:station:DISL:BSCA:1,2013-03-05T04:00:00Z,30.3288,-87.8293,1.742,10.89,1111122 
DISL,ioos:station:DISL:BSCA:1,2013-03-05T04:30:00Z,30.3288,-87.8293,1.717,10.83,1111122 
DISL,ioos:station:DISL:BSCA:1,2013-03-05T05:00:00Z,30.3288,-87.8293,1.69,10.82,1111122 
DISL,ioos:station:DISL:BSCA:1,2013-03-05T05:30:00Z,30.3288,-87.8293,1.671,10.95,1111122 
DISL,ioos:station:DISL:BSCA:1,2013-03-05T06:00:00Z,30.3288,-87.8293,1.642,11.03,1111122 
DISL,ioos:station:DISL:BSCA:1,2013-03-05T06:30:00Z,30.3288,-87.8293,1.612,11.04,1111122 
DISL,ioos:station:DISL:BSCA:1,2013-03-05T07:00:00Z,30.3288,-87.8293,1.599,10.99,1111122 
DISL,ioos:station:DISL:BSCA:1,2013-03-05T07:30:00Z,30.3288,-87.8293,1.573,11.08,1111122 
DISL,ioos:station:DISL:BSCA:1,2013-03-05T08:00:00Z,30.3288,-87.8293,1.573,11.08,1111122 
DISL,ioos:station:DISL:BSCA:1,2013-03-05T08:30:00Z,30.3288,-87.8293,1.566,11.28,1111122 
DISL,ioos:station:DISL:BSCA:1,2013-03-05T09:00:00Z,30.3288,-87.8293,1.555,11.27,1111122 
DISL,ioos:station:DISL:BSCA:1,2013-03-05T09:30:00Z,30.3288,-87.8293,1.553,11.26,1111122 
DISL,ioos:station:DISL:BSCA:1,2013-03-05T10:00:00Z,30.3288,-87.8293,1.568,11.12,1111122 
DISL,ioos:station:DISL:BSCA:1,2013-03-05T10:30:00Z,30.3288,-87.8293,1.566,11.19,1111122 
DISL,ioos:station:DISL:BSCA:1,2013-03-05T11:00:00Z,30.3288,-87.8293,1.575,11.28,1111122 
DISL,ioos:station:DISL:BSCA:1,2013-03-05T11:30:00Z,30.3288,-87.8293,1.573,11.4,1111122 
DISL,ioos:station:DISL:BSCA:1,2013-03-05T12:00:00Z,30.3288,-87.8293,1.589,11.21,1111122 
DISL,ioos:station:DISL:BSCA:1,2013-03-05T12:30:00Z,30.3288,-87.8293,1.605,11.29,1111122 
DISL,ioos:station:DISL:BSCA:1,2013-03-05T13:00:00Z,30.3288,-87.8293,1.631,11.41,1111122 
DISL,ioos:station:DISL:BSCA:1,2013-03-05T13:30:00Z,30.3288,-87.8293,1.667,11.36,1111122 
DISL,ioos:station:DISL:BSCA:1,2013-03-05T14:00:00Z,30.3288,-87.8293,1.692,11.29,1111122 
DISL,ioos:station:DISL:BSCA:1,2013-03-05T14:30:00Z,30.3288,-87.8293,1.73,11.14,1111122 
DISL,ioos:station:DISL:BSCA:1,2013-03-05T15:00:00Z,30.3288,-87.8293,1.767,10.91,1111122 
DISL,ioos:station:DISL:BSCA:1,2013-03-05T15:30:00Z,30.3288,-87.8293,1.807,10.76,1111122 
DISL,ioos:station:DISL:BSCA:1,2013-03-05T16:00:00Z,30.3288,-87.8293,1.835,10.56,1111122 
DISL,ioos:station:DISL:BSCA:1,2013-03-05T16:30:00Z,30.3288,-87.8293,1.873,10.39,1111122 
DISL,ioos:station:DISL:BSCA:1,2013-03-05T17:00:00Z,30.3288,-87.8293,1.896,10.36,1111122 
DISL,ioos:station:DISL:BSCA:1,2013-03-05T17:30:00Z,30.3288,-87.8293,1.929,10.31,1111122 
DISL,ioos:station:DISL:BSCA:1,2013-03-05T18:00:00Z,30.3288,-87.8293,1.96,10.46,1111122 
DISL,ioos:station:DISL:BSCA:1,2013-03-05T18:30:00Z,30.3288,-87.8293,2.01,10.83,1111122 
DISL,ioos:station:DISL:BSCA:1,2013-03-05T19:00:00Z,30.3288,-87.8293,2.075,10.56,1111122 
DISL,ioos:station:DISL:BSCA:1,2013-03-05T19:30:00Z,30.3288,-87.8293,2.077,10.5,1111122 
DISL,ioos:station:DISL:BSCA:1,2013-03-05T20:00:00Z,30.3288,-87.8293,2.129,10.68,1111122 
DISL,ioos:station:DISL:BSCA:1,2013-03-05T20:30:00Z,30.3288,-87.8293,2.281,10.82,1111122 
DISL,ioos:station:DISL:BSCA:1,2013-03-05T21:00:00Z,30.3288,-87.8293,2.244,10.8,1111122 
DISL,ioos:station:DISL:BSCA:1,2013-03-05T21:30:00Z,30.3288,-87.8293,2.23,10.82,1111122 
DISL,ioos:station:DISL:BSCA:1,2013-03-05T22:00:00Z,30.3288,-87.8293,2.284,10.85,1111122 
DISL,ioos:station:DISL:BSCA:1,2013-03-05T22:30:00Z,30.3288,-87.8293,2.287,10.77,1111122 
DISL,ioos:station:DISL:BSCA:1,2013-03-05T23:00:00Z,30.3288,-87.8293,2.282,10.75,1111122 
DISL,ioos:station:DISL:BSCA:1,2013-03-05T23:30:00Z,30.3288,-87.8293,2.346,10.72,1111122 
DISL,ioos:station:DISL:BSCA:1,2013-03-06T00:00:00Z,30.3288,-87.8293,2.305,10.74,1111122 
DISL,ioos:station:DISL:BSCA:1,2013-03-06T00:30:00Z,30.3288,-87.8293,2.272,10.78,1111122 
DISL,ioos:station:DISL:BSCA:1,2013-03-06T01:00:00Z,30.3288,-87.8293,2.234,10.8,1111122 
DISL,ioos:station:DISL:BSCA:1,2013-03-06T01:30:00Z,30.3288,-87.8293,2.191,10.76,1111122 
DISL,ioos:station:DISL:BSCA:1,2013-03-06T02:00:00Z,30.3288,-87.8293,2.168,10.76,1111122 
DISL,ioos:station:DISL:BSCA:1,2013-03-06T02:30:00Z,30.3288,-87.8293,2.136,10.77,1111122 
DISL,ioos:station:DISL:BSCA:1,2013-03-06T03:00:00Z,30.3288,-87.8293,2.151,10.75,1111122 
DISL,ioos:station:DISL:BSCA:1,2013-03-06T03:30:00Z,30.3288,-87.8293,2.006,10.82,1111122 
DISL,ioos:station:DISL:BSCA:1,2013-03-06T04:00:00Z,30.3288,-87.8293,1.935,10.85,1111122 
DISL,ioos:station:DISL:BSCA:1,2013-03-06T04:30:00Z,30.3288,-87.8293,1.899,10.8,1111122 
DISL,ioos:station:DISL:BSCA:1,2013-03-06T05:00:00Z,30.3288,-87.8293,1.864,10.75,1111122 
DISL,ioos:station:DISL:BSCA:1,2013-03-06T05:30:00Z,30.3288,-87.8293,1.803,10.83,1111122 
DISL,ioos:station:DISL:BSCA:1,2013-03-06T06:00:00Z,30.3288,-87.8293,1.743,10.87,1111122 
DISL,ioos:station:DISL:BSCA:1,2013-03-06T06:30:00Z,30.3288,-87.8293,1.716,10.68,1111122 
DISL,ioos:station:DISL:BSCA:1,2013-03-06T07:00:00Z,30.3288,-87.8293,1.675,10.69,1111122 
DISL,ioos:station:DISL:BSCA:1,2013-03-06T07:30:00Z,30.3288,-87.8293,1.66,10.65,1111122 
DISL,ioos:station:DISL:BSCA:1,2013-03-06T08:00:00Z,30.3288,-87.8293,1.646,10.62,1111122 
DISL,ioos:station:DISL:BSCA:1,2013-03-06T08:30:00Z,30.3288,-87.8293,1.635,10.52,1111122 
DISL,ioos:station:DISL:BSCA:1,2013-03-06T09:00:00Z,30.3288,-87.8293,1.671,10.52,1111122 
DISL,ioos:station:DISL:BSCA:1,2013-03-06T09:30:00Z,30.3288,-87.8293,1.732,10.51,1111122 
DISL,ioos:station:DISL:BSCA:1,2013-03-06T10:00:00Z,30.3288,-87.8293,1.652,10.48,1111122 
DISL,ioos:station:DISL:BSCA:1,2013-03-06T10:30:00Z,30.3288,-87.8293,1.627,10.53,1111122 
DISL,ioos:station:DISL:BSCA:1,2013-03-06T11:00:00Z,30.3288,-87.8293,1.629,10.5,1111122 
DISL,ioos:station:DISL:BSCA:1,2013-03-06T11:30:00Z,30.3288,-87.8293,1.552,10.46,1111122 
DISL,ioos:station:DISL:BSCA:1,2013-03-06T12:00:00Z,30.3288,-87.8293,1.551,10.39,1111122 
DISL,ioos:station:DISL:BSCA:1,2013-03-06T12:30:00Z,30.3288,-87.8293,1.533,10.34,1111122 
DISL,ioos:station:DISL:BSCA:1,2013-03-06T13:00:00Z,30.3288,-87.8293,1.511,10.36,1111122 
DISL,ioos:station:DISL:BSCA:1,2013-03-06T13:30:00Z,30.3288,-87.8293,1.506,10.37,1111122 
DISL,ioos:station:DISL:BSCA:1,2013-03-06T14:00:00Z,30.3288,-87.8293,1.505,10.42,1111122 